Location: Unspecified
(0.0000°N, 0.0000°E)
Time: 13:34:36
(UTC+00:00)

SKYMED 3 - Visible Passes

Search period start: 16 August 2017 00:00
Search period end: 26 August 2017 00:00
Orbit: 621 x 623 km, 97.9° (Epoch: 16 August)

Date Brightness Start Highest point End Pass type
(mag) Time Alt. Az. Time Alt. Az. Time Alt. Az.
16 Aug 7.2 05:01:35 10° SE 05:05:02 23° ENE 05:08:29 10° NNE visible
16 Aug 8.6 18:49:13 10° WNW 18:49:51 10° WNW 18:50:29 10° W visible
17 Aug 6.1 05:18:55 10° SSE 05:23:01 42° ENE 05:27:05 10° N visible
18 Aug 4.8 05:36:40 10° SSE 05:41:00 79° ENE 05:45:19 10° N visible
20 Aug 8.3 04:40:08 10° E 04:41:04 11° ENE 04:42:01 10° ENE visible
20 Aug 7.6 18:22:29 10° NNW 18:25:52 23° WNW 18:29:18 10° SW visible
21 Aug 7.6 04:55:56 10° SE 04:59:02 19° ENE 05:02:08 10° NNE visible
21 Aug 8.3 18:41:56 10° NW 18:43:51 13° WNW 18:45:47 10° WSW visible
22 Aug 6.5 05:13:05 10° SE 05:17:01 34° ENE 05:20:56 10° NNE visible
23 Aug 5.2 05:30:42 10° SSE 05:34:59 64° E 05:39:16 10° N visible
